星链-31543 (STARLINK-31543 )
导读
STARLINK-31543是美国太空探索技术公司(SpaceX)星链互联网星座的卫星,于北京时间2024年4月5日08:00发射入轨,属于星链星座扩容组网的组成部分,旨在为全球提供低延迟、高速率的卫星互联网服务,进一步完善星链星座的全球覆盖能力,支撑民用通信及相关配套服务运行。
Basic Information
目录编号:
59402
目录名称:
STARLINK-31543
国际标识:
2024-064E
轨道中心:
EARTH
卫星名称:
星链-31543
卫星全名:
星链-31543 (STARLINK-31543 )
卫星状态:
在轨 (已飞行883 天)
发射日期:
2024-04-05 UTC
国别 :
美国
(US)
星等 :
--
Orbit Information
| 数据来源 | 国际轨道数据 | AOE轨道数据 |
| 星历时间 | 2026-09-04T23:41:26+0800 10小时前 查看轨道信息 | 2026-09-01T11:00:00+0800 3天前 查看轨道信息 |
| 半长轴 | 6861.184km | 6861.22km |
| 偏心率 | 0.0001437 | 0.0001473 |
| 轨道倾角 | 43.004° | 43.003° |
| 近地点辐角 | 261.602° | 280.893° |
| 升交点赤经 | 125.683° | 145.620° |
| 平近点角 | 98.467° | 90.646° |
| 近地点 | 482.061km | 482.072km |
| 远地点 | 484.033km | 484.094km |
| 周期 | 94.267分钟 | 94.267分钟 |
| 每日圈数 | 15.275807 | 15.275687 |
Detailed Information
固有亮度:
5
最大亮度:
0.3
卫星平台:
Starlink v2.0 mini
覆盖范围:
全球
运营商:
太空探索技术公司
运营商所在国:
美国
制造商(研发单位):
太空探索技术公司
制造商所在国:
美国
使用方式:
暂无
Satellite Introduction
星链(Starlink)计划是由太空探索技术公司(SpaceX)提出的一个巨型低轨卫星互联网星座项目,计划在2019年至2024年间在太空搭建由约1.2万颗卫星组成的“星链”网络,其中1584颗将部署在地球上空550千米处的近地轨道,并从2020年开始工作。该卫星仍在工作。
2D Orbit Map
3D Orbit Map
Orbit Altitude Analysis Chart
Orbit Inclination Analysis Chart
Orbit Comprehensive Analysis Chart
View Comprehensive ChartConjunction Data List
| Event ID | Objects | TCA | Miss Dist (km) | Collision Risk Probability | Collision Risk Index (CRI) | Action |
|---|---|---|---|---|---|---|
| CDM_260905-180405-940206-679921 |
STARLINK-31543
(59402)
STARLINK-36044
(66799) | 2026-09-05T 18:04:17+0000 |
1.035 km
极远距离 | 1.130258E-5 中风险 | 0.56 | |
| CDM_260907-131105-940206-074921 |
STARLINK-31543
(59402)
OBJECT E
(60749) | 2026-09-07T 13:11:17+0000 |
1.217 km
极远距离 | 1.083255E-5 中风险 | 0.56 | |
| CDM_260905-233305-940206-679921 |
STARLINK-31543
(59402)
STARLINK-36044
(66799) | 2026-09-05T 23:33:49+0000 |
1.113 km
极远距离 | 8.801394E-6 低风险 | 0.54 | |
| CDM_260907-104905-940206-074921 |
STARLINK-31543
(59402)
OBJECT E
(60749) | 2026-09-07T 10:49:56+0000 |
1.321 km
极远距离 | 8.190257E-6 低风险 | 0.53 | |
| CDM_260907-111705-290705-940222 |
YAOGAN-35 02A
(52907)
STARLINK-31543
(59402) | 2026-09-07T 11:17:27+0000 |
1.388 km
极远距离 | 6.050001E-6 低风险 | 0.51 | |
| CDM_260906-111503-825705-940221 |
YAOGAN 14
(38257)
STARLINK-31543
(59402) | 2026-09-06T 11:15:31+0000 |
2.102 km
极远距离 | 2.13632E-6 低风险 | 0.42 | |
| CDM_260906-210705-322805-940221 |
STARLINK-4365
(53228)
STARLINK-31543
(59402) | 2026-09-06T 21:07:27+0000 |
2.269 km
极远距离 | 2.079693E-6 低风险 | 0.41 | |
| CDM_260906-120203-825705-940223 |
YAOGAN 14
(38257)
STARLINK-31543
(59402) | 2026-09-06T 12:02:38+0000 |
2.131 km
极远距离 | 2.067632E-6 低风险 | 0.41 |

